TimeAKST,TemperatureF,Dew PointF,Humidity,Sea Level PressureIn,VisibilityMPH,Wind Direction,Wind SpeedMPH,Gust SpeedMPH,PrecipitationIn,Events,Conditions,WindDirDegrees,DateUTC
12:53 AM,45.0,33.1,63,29.29,10.0,ESE,19.6,25.3,N/A,,Overcast,120,2012-11-16 09:53:00
1:53 AM,44.1,33.1,65,29.27,10.0,ESE,20.7,25.3,N/A,,Overcast,110,2012-11-16 10:53:00
3:53 AM,44.1,33.1,65,29.20,10.0,ESE,20.7,27.6,N/A,,Overcast,120,2012-11-16 12:53:00
4:53 AM,44.1,32.0,63,29.21,10.0,SE,18.4,28.8,N/A,,Overcast,130,2012-11-16 13:53:00
5:53 AM,43.0,33.1,68,29.21,10.0,ESE,19.6,26.5,0.00,,Overcast,110,2012-11-16 14:53:00
6:53 AM,43.0,33.1,68,29.22,10.0,ESE,15.0,-,N/A,,Overcast,120,2012-11-16 15:53:00
7:27 AM,42.8,33.8,70,29.23,7.0,ESE,15.0,-,0.00,Rain,Light Rain,120,2012-11-16 16:27:00
7:53 AM,39.9,35.1,83,29.24,7.0,East,13.8,-,0.02,Rain,Light Rain,90,2012-11-16 16:53:00
8:42 AM,39.2,35.6,87,29.25,10.0,East,12.7,-,0.03,Rain,Light Rain,100,2012-11-16 17:42:00
8:53 AM,39.9,36.0,86,29.25,10.0,East,10.4,-,0.03,Rain,Light Rain,80,2012-11-16 17:53:00
9:53 AM,41.0,36.0,82,29.26,10.0,ESE,5.8,-,0.00,,Overcast,110,2012-11-16 18:53:00
10:53 AM,41.0,36.0,82,29.28,10.0,East,8.1,-,N/A,,Overcast,100,2012-11-16 19:53:00
11:53 AM,44.1,37.0,76,29.30,10.0,ESE,6.9,-,N/A,,Mostly Cloudy,110,2012-11-16 20:53:00
12:53 PM,44.1,35.1,71,29.31,10.0,SE,6.9,-,N/A,,Overcast,130,2012-11-16 21:53:00
1:53 PM,44.1,35.1,71,29.32,10.0,ESE,10.4,-,N/A,,Mostly Cloudy,110,2012-11-16 22:53:00
2:53 PM,43.0,34.0,71,29.34,10.0,ESE,9.2,-,N/A,,Mostly Cloudy,110,2012-11-16 23:53:00
3:53 PM,43.0,34.0,71,29.35,10.0,ESE,10.4,-,N/A,,Overcast,120,2012-11-17 00:53:00
4:53 PM,42.1,33.1,70,29.35,10.0,East,6.9,-,N/A,,Overcast,90,2012-11-17 01:53:00
5:53 PM,42.1,34.0,73,29.34,10.0,East,3.5,-,0.00,,Mostly Cloudy,90,2012-11-17 02:53:00
6:53 PM,43.0,34.0,71,29.35,10.0,ESE,4.6,-,N/A,,Mostly Cloudy,110,2012-11-17 03:53:00
7:53 PM,39.9,35.1,83,29.35,10.0,NNE,5.8,-,N/A,,Overcast,30,2012-11-17 04:53:00
8:53 PM,41.0,34.0,76,29.35,10.0,Variable,3.5,-,N/A,,Overcast,0,2012-11-17 05:53:00
9:53 PM,39.9,35.1,83,29.34,10.0,Calm,Calm,-,N/A,,Overcast,0,2012-11-17 06:53:00
10:53 PM,39.9,36.0,86,29.34,10.0,NNW,4.6,-,N/A,,Overcast,340,2012-11-17 07:53:00
11:53 PM,39.0,35.1,86,29.32,10.0,Calm,Calm,-,N/A,,Mostly Cloudy,0,2012-11-17 08:53:00